Location: Fredericksburg
(30.2750°N, 98.8720°W)
Time: 01:59:23
(UTC-05:00)

Daily predictions for brighter satellites

Satellite Brightness Start Highest point End
(mag) Time Altitude Azimuth Time Altitude Azimuth Time Altitude Azimuth
CENTAUR R/B 4.4 00:08:20 10° WSW 00:13:08 24° NW 00:18:25 10° N
BREEZE-M DEB (TANK) 4.4 00:18:44 42° NNE 00:18:44 42° NNE 00:26:59 10° NE
Milstar 3 4.0 00:15:30 10° W 00:20:33 36° WSW 00:20:33 36° WSW
Terra 4.3 00:36:29 17° NW 00:36:29 17° NW 00:37:55 10° NW
ATLAS 5 CENTAUR R/B 3.5 00:32:25 10° NNW 00:36:20 42° NW 00:36:20 42° NW
Cosmos 2227 Rocket 4.2 01:03:20 10° N 01:05:49 21° NNE 01:05:49 21° NNE
USA 234 4.4 01:47:08 10° NE 01:50:37 35° NE 01:50:37 35° NE
Cosmos 2297 Rocket 4.1 01:57:57 10° NNW 02:00:13 25° N 02:00:13 25° N
Cosmos 2322 Rocket 4.5 02:22:20 16° ENE 02:22:20 16° ENE 02:23:56 10° NE
NOSS 3-1 (C) 4.4 02:57:05 40° N 02:57:05 40° N 03:01:06 10° NNE
Resurs 1-4 Rocket 3.8 03:07:01 10° NE 03:10:15 27° ENE 03:10:15 27° ENE
Cosmos 2360 Rocket 3.9 03:14:20 24° E 03:14:20 24° E 03:17:51 10° NE
Cosmos 1980 Rocket 3.9 03:16:13 26° NNW 03:16:13 26° NNW 03:19:17 10° N
Cosmos 2263 Rocket 4.5 03:10:37 10° NNE 03:14:36 19° ENE 03:18:23 11° ESE
CZ-2D R/B 3.3 03:19:35 10° NNE 03:23:42 38° ENE 03:23:42 38° ENE
CZ-4C R/B 3.0 03:26:11 10° NNW 03:33:41 76° ENE 03:35:34 55° SE
ARIANE 5 R/B 3.5 03:33:15 10° NNE 03:37:10 42° ENE 03:37:10 42° ENE
Cosmos 2074 Rocket 4.4 03:42:28 56° ESE 03:42:45 56° E 03:48:53 10° NNE
DELTA 2 R/B (1) 4.2 03:48:08 51° ENE 03:48:08 51° ENE 03:52:14 10° ENE
SL-08 ROCKET BODY 4.4 03:51:01 78° N 03:51:01 78° N 03:56:41 10° N
SL-16 R/B 3.0 03:53:50 41° NW 03:53:50 41° NW 03:58:10 10° N
ATLAS 2AS CENTAUR R/B 3.5 03:53:10 42° SE 03:54:44 48° ESE 04:02:18 10° NE
Cosmos 2322 Rocket 3.2 04:04:09 35° NW 04:04:09 35° NW 04:08:34 10° N
Intelsat 5-1 Rocket 3.9 04:08:43 28° SE 04:08:43 28° SE 04:13:37 10° E
NOSS 2-3 (E) 4.2 04:08:35 60° NE 04:08:35 60° NE 04:12:48 10° NNE
ADEOS Rocket 3.8 04:05:56 10° N 04:11:01 35° WNW 04:11:01 35° WNW
BREEZE-M DEB (TANK) 4.1 04:15:52 25° NE 04:15:52 25° NE 04:17:35 10° NE
SL-16 R/B 2.4 04:22:58 63° WSW 04:23:22 65° WSW 04:29:35 10° NNW
Cosmos 1726 Rocket 4.1 04:24:47 52° NNW 04:24:47 52° NNW 04:28:11 10° N
ADEOS 3.7 04:23:05 10° N 04:28:01 55° WNW 04:28:01 55° WNW
Cosmos 2237 4.2 04:28:21 62° S 04:29:17 79° ESE 04:34:58 10° NNE
UNKNOWN OBJECT B 3.4 04:30:37 10° N 04:33:30 49° N 04:33:30 49° N
Cosmos 1271 Rocket 3.3 04:35:01 53° ESE 04:35:08 54° E 04:39:04 10° NNE
NOSS 2-3 (C) 4.1 04:40:49 48° WNW 04:41:00 48° WNW 04:45:57 10° NNE
Cosmos 1302 Rocket 4.4 04:43:38 45° W 04:43:55 45° WNW 04:48:59 10° N
Iridium 4 Rocket 3.9 04:43:34 51° WSW 04:44:29 57° W 04:50:12 10° N
MOS 1 Rocket 3.9 04:43:37 10° N 04:47:21 36° WNW 04:47:21 36° WNW
USA 161 3.6 04:47:08 23° ESE 04:48:08 28° ENE 04:50:46 10° NNE
Resurs 1-4 Rocket 3.4 04:47:05 10° NNW 04:51:15 24° WNW 04:51:19 24° WNW
COSMOS 2428 2.6 04:50:30 43° SSW 04:52:30 89° ESE 04:58:16 10° NNE
ADEOS II 2.8 04:49:43 10° NNE 04:54:49 49° E 04:58:28 18° S
Cosmos 2360 Rocket 3.0 04:56:07 31° W 04:57:04 33° WNW 05:02:08 10° N
Cosmos 44 3.7 04:53:13 10° NNW 04:57:33 56° ENE 05:02:02 10° SE
Cosmos 2263 Rocket 2.4 04:53:17 10° NNW 04:58:42 47° WSW 04:59:56 40° SW
MOZ.5/SAFIR/RUBIN 5/SL-8 3.8 04:58:03 51° SW 04:58:44 57° W 05:03:17 10° NNW
BREEZE-M DEB (TANK) 3.3 04:58:04 42° W 04:59:26 65° NW 05:11:51 10° NE
Meteor 2-8 Rocket 4.3 04:54:05 10° N 05:00:11 82° W 05:04:57 18° S
CZ-2D R/B 4.1 04:56:32 10° N 05:00:35 40° WNW 05:00:41 40° WNW
Meteor 2-19 Rocket 4.4 04:59:55 34° SSW 05:02:39 67° W 05:08:47 10° N
Cosmos 2219 Rocket 2.6 04:59:23 25° S 05:02:40 61° ESE 05:08:16 10° NNE
Cosmos 2237 Rocket 3.8 04:57:57 10° SSE 05:02:47 30° ESE 05:07:36 10° NE
SWIFT 4.2 05:05:06 18° SSE 05:05:06 18° SSE 05:06:54 10° SE
CZ-2D R/B 3.7 05:00:38 10° NNW 05:04:26 20° WNW 05:05:02 19° WNW
Meteor 2-5 Rocket 3.6 04:59:41 10° N 05:05:21 82° W 05:10:23 14° S
Cosmos 1758 Rocket 4.4 05:02:44 10° NNW 05:06:04 31° WNW 05:06:04 31° WNW
MOS 1-B 4.3 05:03:11 10° NNE 05:09:00 84° WNW 05:12:35 25° SSW
ISS -0.3 05:10:13 10° N 05:11:32 12° NE 05:12:48 10° ENE
Cosmos 2333 Rocket 2.7 05:07:58 19° S 05:12:01 59° ESE 05:17:37 10° NNE
CZ-4B R/B 4.2 05:08:05 10° NNE 05:13:28 45° E 05:18:47 10° S
Cosmos 1766 3.1 05:14:38 41° SSW 05:15:50 70° W 05:19:44 10° N
PSLV R/B 4.2 05:12:05 10° NNE 05:16:23 56° E 05:19:59 14° S
ARIANE 5 R/B 4.3 05:13:58 10° NNW 05:16:53 15° WNW 05:17:31 15° WNW
Cosmos 1295 Rocket 4.4 05:12:36 20° S 05:17:10 78° W 05:23:31 10° N
OAO 3 Rocket 3.8 05:16:06 21° WNW 05:19:11 51° N 05:23:59 10° ENE
Cosmos 1844 Rocket 3.7 05:14:55 10° N 05:20:22 47° ENE 05:25:48 10° SE
Cosmos 389 Rocket 2.6 05:20:19 44° SW 05:21:02 55° W 05:24:31 10° N
Meteor 1-24 Rocket 3.7 05:16:21 10° N 05:21:47 83° E 05:27:22 10° S
CZ-4C R/B 4.3 05:16:42 10° WNW 05:20:34 18° W 05:20:34 18° W
BREEZE-M DEB (TANK) 3.7 05:08:19 10° NW 05:23:52 87° NE 05:27:48 10° SE
Cosmos 2228 4.4 05:24:13 21° W 05:24:20 21° WNW 05:27:34 10° NNW
Cosmos 1707 3.6 05:21:40 10° NNW 05:24:59 28° W 05:24:59 28° W
Cosmos 1992 Rocket 4.0 05:22:19 27° SW 05:25:05 62° WNW 05:30:14 10° N
Nadezhda 3 Rocket 4.2 05:23:15 10° NNW 05:29:15 51° W 05:35:12 11° SSW
Cosmos 1809 Rocket 4.4 05:24:25 10° S 05:30:31 88° E 05:36:41 10° N
Cosmos 44 Rocket 3.3 05:25:56 10° NW 05:30:32 52° WSW 05:35:11 10° S
SL-8 Rocket 4.0 05:25:50 10° S 05:32:03 81° W 05:38:23 10° N
Geosat 4.0 05:27:07 10° NNE 05:32:10 88° ESE 05:36:10 16° SSW
CZ-4B DEB 4.4 05:27:47 10° NNE 05:33:22 76° ESE 05:38:54 10° S
ATLAS 2A CENTAUR R/B 2.9 05:33:12 20° S 05:33:37 21° SSE 05:36:32 10° E
Cosmos 1544 3.2 05:33:11 26° SSW 05:35:00 53° W 05:38:38 10° N
BREEZE-M DEB (TANK) 4.5 05:32:19 21° W 05:35:00 52° NNW 05:47:51 10° NE
KM-V1 3.8 05:33:22 19° W 05:36:03 74° N 05:38:31 10° E
Meteor 2-21 4.4 05:34:35 10° S 05:40:37 79° W 05:46:45 10° N
Cosmos 1184 Rocket 3.9 05:38:33 10° NW 05:41:19 25° W 05:41:47 24° WSW
Delta 142 3.8 05:40:01 22° WSW 05:42:13 41° SSW 05:46:15 10° ESE
ATLAS 2AS CENTAUR R/B 3.9 05:40:38 16° WSW 05:45:53 34° NW 05:53:04 10° N
Cosmos 1340 Rocket 3.3 05:43:17 10° NNW 05:46:59 39° W 05:50:33 10° SSW
Meteor 2-14 Rocket 4.5 05:40:57 10° S 05:47:00 87° E 05:53:05 10° N
Aureole 2 Rocket 3.5 05:44:52 20° SW 05:47:14 37° WNW 05:51:07 10° N
Okean O Rocket 1.7 05:43:01 10° N 05:47:24 59° WNW 05:51:31 12° SSW
SL-16 R/B 4.0 05:42:42 10° SSE 05:47:32 29° ESE 05:52:22 10° NE
Cosmos 1812 Rocket 4.1 05:45:11 18° SW 05:47:59 37° W 05:52:03 10° NNW
Cosmos 1733 4.3 05:44:26 10° SSE 05:48:08 46° E 05:51:52 10° NNE
IRS-1C Rocket 4.1 05:43:06 10° NNE 05:48:22 85° WNW 05:53:37 10° SSW
Milstar 3 4.4 05:46:15 15° WSW 05:51:01 25° SSW 06:00:21 10° SSE
NOSS 3-4 (A) 4.0 05:47:11 10° SSW 05:53:20 61° ESE 05:59:36 10° NE
NOSS 3-4 (C) 4.0 05:47:16 10° SSW 05:53:26 60° ESE 05:59:41 10° NE
Okean 3 Rocket 4.3 05:49:27 10° N 05:53:48 56° E 05:58:09 10° SSE
Cosmos 1805 3.8 05:51:37 15° SSW 05:54:33 39° W 05:58:15 10° N
SEDSat Delta rocket 2.9 05:53:12 15° WSW 05:56:32 82° S 06:01:06 10° E
Cosmos 1758 3.5 05:56:14 10° SSW 06:00:05 50° W 06:04:00 10° N
CZ-4B R/B 3.8 05:57:36 10° NNW 06:00:59 30° WNW 06:04:13 12° SW
Cosmos 1818 3.9 05:56:02 10° SSW 06:01:24 69° ESE 06:06:48 10° NNE
Cosmos 1727 Rocket 4.3 05:55:31 10° N 06:01:43 73° E 06:07:50 10° SSE
Cosmos 1844 3.8 05:56:12 10° NNW 06:01:50 86° ENE 06:07:30 10° SSE
Landsat 4 3.7 05:59:19 10° S 06:03:00 60° WSW 06:06:42 10° NNW
Cosmos 1354 Rocket 4.4 05:58:21 10° NNW 06:03:17 41° W 06:08:13 10° S
NOSS 8 (A) 4.5 06:01:41 10° SSW 06:05:16 76° ESE 06:08:30 10° NNE
Meteor 2-15 4.4 06:00:46 10° N 06:06:54 75° W 06:13:00 10° S
Cosmos 1674 3.0 06:03:40 10° N 06:07:30 73° E 06:11:20 10° S
Abrixas rocket 2.3 06:05:58 11° SW 06:09:02 77° SE 06:12:21 10° NE
Cosmos 1953 2.7 06:05:24 10° SSW 06:09:16 44° W 06:13:08 10° N
CZ-2C R/B 3.9 06:05:24 10° SSE 06:09:58 78° ENE 06:14:29 10° N
Cosmos 2366 rocket 4.2 06:04:46 10° SSW 06:10:41 51° W 06:16:41 10° N
Lacrosse 5 2.7 06:06:49 10° SSW 06:11:41 48° ESE 06:16:33 10° NE
SeaSat 1 2.8 06:10:22 10° S 06:14:59 41° WSW 06:19:38 10° NW
NOSS 0 Rocket 4.4 06:12:53 10° SW 06:18:43 44° WNW 06:24:36 10° N
RESURS DK-1 4.3 06:16:21 10° SSE 06:19:58 30° ESE 06:23:37 10° NE
Meteor PRIRODA 4.1 06:18:01 10° N 06:21:35 42° WNW 06:25:05 10° SSW
Tiangong 1 2.3 06:21:59 10° SSW 06:24:25 28° SE 06:26:52 10° ENE
Cosmos 1339 Rocket 4.4 06:18:53 10° N 06:24:55 71° W 06:30:57 10° S
